Volver al catálogo

KANOPUS-V 3

ActivoCienciaSSO
NORAD 43180·PAYLOAD·🇷🇺 Russia

Lanzado Feb 1, 2018 desde Vostochny Cosmodrome

Loading…

Próximos Pases (próximas 24 horas)

TLE

ActualizadoSource: Space-Track

Época: Sep 15, 2026, 04:09 UTC

1 43180U 18014A   26258.17344429  .00001458  00000-0  66072-4 0  9990
2 43180  97.3479 161.7874 0001616  86.9928 273.1493 15.22413697478410

Sigue KANOPUS-V 3 en tiempo real con AllMySat

Download on the App Store